Flag for Martinique Weather past 2 weeks in Fort-de-France, Martinique

Now
77 °F

Partly cloudy.


Feels Like: 78 °F
Forecast: 76 / 89 °F
Wind: 3 mph from East

Location: Le Lamentin Airport

Current Time: Apr 28, 2015 at 3:13:53 AM

Latest Report: Apr 28, 2015 at 2:30 AM


Visibility: N/A

Pressure: 29.92 "Hg

Humidity: 83%

Dew point: 72 °F

Location of Fort-de-FranceLocation

Historic Weather in Fort-de-France — Graph

°F

Fort-de-France temperature yesterday

Maximum temperature yesterday: 88 °F (at 10:30 AM)
Minimum temperature yesterday: 77 °F (at 12:30 AM)
Average temperature yesterday: 81 °F

Past Weeks' High & Low Weather Summary

 TemperatureHumidityPressure
High91 °F (Apr 26, 12:30 PM)94% (Apr 13, 5:00 AM)30.09 "Hg (Apr 13, 5:00 AM)
Low72 °F (Apr 18, 12:00 AM)52% (Apr 22, 1:00 PM)29.89 "Hg (Apr 24, 4:30 PM)
Average80 °F76%29.99 "Hg
* Reported Apr 13 2:00 AM — Apr 28 2:00 AM, Fort-de-France, Weather by CustomWeather, © 2015

Note: Actual official high and low records may vary slightly from our data, if they occured in-between our weather recording intervals... More about our weather records

Advertising

Fort-de-France weather history for previous 24 hours

 ConditionsComfort  
Time TempWeatherWind HumidityBarometerVisibility
2:00 AM
Tue, Apr 28
77 °FPassing clouds.6 mph83%29.95 "HgN/A
1:30 AM77 °FPassing clouds.6 mph83%29.95 "HgN/A
1:00 AM77 °FPassing clouds.6 mph83%29.95 "HgN/A
12:30 AM77 °FMostly cloudy.6 mph83%29.95 "HgN/A
11:30 PM
Mon, Apr 27
77 °FPassing clouds.No wind83%29.98 "HgN/A
11:00 PM77 °FWarm.5 mph83%29.98 "HgN/A
10:30 PM77 °FWarm.5 mph83%29.98 "HgN/A
10:00 PM77 °FWarm.5 mph83%29.98 "HgN/A
9:30 PM77 °FPassing clouds.3 mph83%29.98 "HgN/A
9:00 PM77 °FWarm.6 mph83%29.95 "HgN/A
8:30 PM77 °FWarm.7 mph83%29.95 "HgN/A
8:00 PM79 °FWarm.9 mph79%29.95 "HgN/A
7:30 PM79 °FWarm.6 mph79%29.92 "HgN/A
7:00 PM79 °FWarm.8 mph79%29.92 "HgN/A
6:30 PM81 °FWarm.8 mph74%29.92 "HgN/A
6:00 PM81 °FWarm.10 mph70%29.89 "HgN/A
5:30 PM82 °FWarm.12 mph66%29.89 "HgN/A
5:00 PM84 °FPassing clouds.13 mph62%29.89 "HgN/A
4:30 PM86 °FPassing clouds.13 mph59%29.92 "HgN/A
4:00 PM86 °FScattered clouds.13 mph62%29.92 "HgN/A
3:30 PM88 °FPartly sunny.15 mph59%29.92 "HgN/A
3:00 PM86 °FScattered clouds.15 mph59%29.92 "HgN/A
2:30 PM86 °FScattered clouds.15 mph62%29.92 "HgN/A
2:00 PM86 °FPassing clouds.16 mph59%29.92 "HgN/A
1:30 PM88 °FPartly sunny.14 mph59%29.95 "HgN/A
1:00 PM88 °FPassing clouds.14 mph55%29.95 "HgN/A
12:30 PM88 °FPartly sunny.13 mph59%29.95 "HgN/A
12:00 PM88 °FBroken clouds.12 mph55%29.98 "HgN/A
11:30 AM86 °FScattered clouds.16 mph62%29.98 "HgN/A
11:00 AM86 °FBroken clouds.14 mph62%30.01 "HgN/A
10:30 AM88 °FPartly sunny.16 mph62%30.01 "HgN/A
10:00 AM86 °FPartly sunny.16 mph66%30.01 "HgN/A
9:30 AM86 °FPassing clouds.15 mph66%30.01 "HgN/A
9:00 AM86 °FScattered clouds.14 mph62%30.01 "HgN/A
8:30 AM84 °FPartly sunny.14 mph66%30.01 "HgN/A
8:00 AM82 °FMostly cloudy.8 mph74%29.98 "HgN/A
7:30 AM82 °FBroken clouds.7 mph79%29.98 "HgN/A
7:00 AM81 °FPartly sunny.2 mph79%29.98 "HgN/A
6:30 AM77 °FLight rain. Passing clouds.No wind89%29.95 "HgN/A
6:00 AM77 °FLight rain. Partly sunny.No wind83%29.95 "HgN/A
5:30 AM77 °FLight rain. Mostly cloudy.No wind83%29.95 "HgN/A
5:00 AM77 °FLight rain. Passing clouds.1 mph83%29.95 "HgN/A
4:30 AM77 °FLight rain. Overcast.1 mph83%29.95 "HgN/A
4:00 AM77 °FLight rain. Overcast.2 mph83%29.95 "HgN/A
3:30 AM77 °FLight rain. Overcast.1 mph89%29.92 "HgN/A
3:00 AM77 °FLight rain. Overcast.1 mph89%29.92 "HgN/A
Weather by CustomWeather, © 2015

See weather overviewHow to use our weather pages